Time,TemperatureF,DewpointF,PressureIn,WindDirection,WindDirectionDegrees,WindSpeedMPH,WindSpeedGustMPH,Humidity,HourlyPrecipIn,Conditions,Clouds,dailyrainin,SoftwareType,DateUTC
2013-07-16 00:00:00,70.9,69.4,30.23,ENE,58,0.0,0.0,95,0.00,,---,0.00,VWS V14.01,2013-07-16 04:00:00,
2013-07-16 00:01:00,70.9,69.4,30.23,ENE,58,0.0,0.0,95,0.00,,---,0.00,VWS V14.01,2013-07-16 04:01:00,
2013-07-16 00:06:00,70.7,69.2,30.23,ENE,58,0.0,0.0,95,0.00,,---,0.00,VWS V14.01,2013-07-16 04:06:00,
2013-07-16 00:11:00,70.6,69.1,30.23,ENE,58,0.0,0.0,95,0.00,,---,0.00,VWS V14.01,2013-07-16 04:11:00,
2013-07-16 00:16:00,70.5,69.0,30.23,ENE,58,0.0,0.0,95,0.00,,---,0.00,VWS V14.01,2013-07-16 04:16:00,
2013-07-16 00:21:00,70.5,69.0,30.23,ENE,58,0.0,0.0,95,0.00,,---,0.00,VWS V14.01,2013-07-16 04:21:00,
2013-07-16 00:27:00,70.4,68.9,30.23,ENE,58,0.0,0.0,95,0.00,,---,0.00,VWS V14.01,2013-07-16 04:27:00,
2013-07-16 00:31:00,70.3,68.8,30.24,ENE,58,0.0,0.0,95,0.00,,---,0.00,VWS V14.01,2013-07-16 04:31:00,
2013-07-16 00:37:00,70.3,68.8,30.23,ENE,58,0.0,0.0,95,0.00,,---,0.00,VWS V14.01,2013-07-16 04:37:00,
2013-07-16 00:42:00,70.2,68.7,30.24,ENE,58,0.0,0.0,95,0.00,,---,0.00,VWS V14.01,2013-07-16 04:42:00,
2013-07-16 00:47:00,70.1,68.6,30.24,ENE,58,0.0,0.0,95,0.00,,---,0.00,VWS V14.01,2013-07-16 04:47:00,
2013-07-16 00:52:00,70.0,68.5,30.24,ENE,58,0.0,0.0,95,0.00,,---,0.00,VWS V14.01,2013-07-16 04:52:00,
2013-07-16 00:56:00,69.9,68.4,30.23,ENE,58,0.0,0.0,95,0.00,,---,0.00,VWS V14.01,2013-07-16 04:56:00,
2013-07-16 01:01:00,69.9,68.4,30.23,ENE,58,0.0,0.0,95,0.00,,---,0.00,VWS V14.01,2013-07-16 05:01:00,
2013-07-16 01:06:00,69.8,68.3,30.23,ENE,58,0.0,0.0,95,0.00,,---,0.00,VWS V14.01,2013-07-16 05:06:00,
2013-07-16 01:11:00,69.8,68.3,30.23,ENE,58,0.0,0.0,95,0.00,,---,0.00,VWS V14.01,2013-07-16 05:11:00,
2013-07-16 01:17:00,69.7,68.2,30.23,ENE,58,0.0,0.0,95,0.00,,---,0.00,VWS V14.01,2013-07-16 05:17:00,
2013-07-16 01:22:00,69.7,68.2,30.23,ENE,58,0.0,0.0,95,0.00,,---,0.00,VWS V14.01,2013-07-16 05:22:00,
2013-07-16 01:27:00,69.6,68.1,30.23,ENE,58,0.0,0.0,95,0.00,,---,0.00,VWS V14.01,2013-07-16 05:27:00,
2013-07-16 01:32:00,69.6,68.1,30.23,ENE,58,0.0,0.0,95,0.00,,---,0.00,VWS V14.01,2013-07-16 05:32:00,
2013-07-16 01:37:00,69.6,68.1,30.23,ENE,58,0.0,0.0,95,0.00,,---,0.00,VWS V14.01,2013-07-16 05:37:00,
2013-07-16 01:42:00,69.5,68.0,30.23,ENE,58,0.0,0.0,95,0.00,,---,0.00,VWS V14.01,2013-07-16 05:42:00,
2013-07-16 01:47:00,69.4,67.9,30.23,ENE,58,0.0,0.0,95,0.00,,---,0.00,VWS V14.01,2013-07-16 05:47:00,
2013-07-16 01:52:00,69.4,67.9,30.23,ENE,58,0.0,0.0,95,0.00,,---,0.00,VWS V14.01,2013-07-16 05:52:00,
2013-07-16 01:57:00,69.4,67.9,30.23,ENE,58,0.0,0.0,95,0.00,,---,0.00,VWS V14.01,2013-07-16 05:57:00,
2013-07-16 02:02:00,69.4,67.9,30.23,ENE,58,0.0,0.0,95,0.00,,---,0.00,VWS V14.01,2013-07-16 06:02:00,
2013-07-16 02:07:00,69.3,67.8,30.23,ENE,58,0.0,0.0,95,0.00,,---,0.00,VWS V14.01,2013-07-16 06:07:00,
2013-07-16 02:12:00,69.3,67.8,30.23,ENE,58,0.0,0.0,95,0.00,,---,0.00,VWS V14.01,2013-07-16 06:12:00,
2013-07-16 02:17:00,69.2,67.7,30.23,ENE,58,0.0,0.0,95,0.00,,---,0.00,VWS V14.01,2013-07-16 06:17:00,
2013-07-16 02:22:00,69.1,67.6,30.23,ENE,58,0.0,0.0,95,0.00,,---,0.00,VWS V14.01,2013-07-16 06:22:00,
2013-07-16 02:27:00,69.1,67.6,30.23,ENE,58,0.0,0.0,95,0.00,,---,0.00,VWS V14.01,2013-07-16 06:27:00,
2013-07-16 02:32:00,69.0,67.5,30.23,ENE,58,0.0,0.0,95,0.00,,---,0.00,VWS V14.01,2013-07-16 06:32:00,
2013-07-16 02:37:00,68.9,67.4,30.23,ENE,58,0.0,0.0,95,0.00,,---,0.00,VWS V14.01,2013-07-16 06:37:00,
2013-07-16 02:42:00,68.9,67.4,30.23,ENE,58,0.0,0.0,95,0.00,,---,0.00,VWS V14.01,2013-07-16 06:42:00,
2013-07-16 02:47:00,68.9,67.4,30.23,ENE,58,0.0,0.0,95,0.00,,---,0.00,VWS V14.01,2013-07-16 06:47:00,
2013-07-16 02:52:00,68.9,67.4,30.23,ENE,58,0.0,0.0,95,0.00,,---,0.00,VWS V14.01,2013-07-16 06:52:00,
2013-07-16 02:57:00,68.8,67.3,30.23,ENE,58,0.0,0.0,95,0.00,,---,0.00,VWS V14.01,2013-07-16 06:57:00,
2013-07-16 03:02:00,68.8,67.3,30.23,ENE,58,0.0,0.0,95,0.00,,---,0.00,VWS V14.01,2013-07-16 07:02:00,
2013-07-16 03:07:00,68.8,67.3,30.23,ENE,58,0.0,0.0,95,0.00,,---,0.00,VWS V14.01,2013-07-16 07:07:00,
2013-07-16 03:12:00,68.7,67.2,30.23,ENE,58,0.0,0.0,95,0.00,,---,0.00,VWS V14.01,2013-07-16 07:12:00,
2013-07-16 03:17:00,68.7,67.2,30.23,ENE,58,0.0,0.0,95,0.00,,---,0.00,VWS V14.01,2013-07-16 07:17:00,
2013-07-16 03:22:00,68.8,67.3,30.23,NE,52,0.0,0.0,95,0.00,,---,0.00,VWS V14.01,2013-07-16 07:22:00,
2013-07-16 03:27:00,68.9,67.4,30.23,NE,49,0.0,0.0,95,0.00,,---,0.00,VWS V14.01,2013-07-16 07:27:00,
2013-07-16 03:32:00,69.1,67.6,30.23,NE,49,0.0,0.0,95,0.00,,---,0.00,VWS V14.01,2013-07-16 07:32:00,
2013-07-16 03:37:00,69.2,67.7,30.23,NE,49,0.0,0.0,95,0.00,,---,0.00,VWS V14.01,2013-07-16 07:37:00,
2013-07-16 03:42:00,69.1,67.6,30.22,NE,49,0.0,0.0,95,0.00,,---,0.00,VWS V14.01,2013-07-16 07:42:00,
2013-07-16 03:47:00,69.0,67.5,30.23,NE,49,0.0,0.0,95,0.00,,---,0.00,VWS V14.01,2013-07-16 07:47:00,
2013-07-16 03:52:00,68.9,67.4,30.23,NE,49,0.0,0.0,95,0.00,,---,0.00,VWS V14.01,2013-07-16 07:52:00,
2013-07-16 03:57:00,68.8,67.3,30.23,NE,49,0.0,0.0,95,0.00,,---,0.00,VWS V14.01,2013-07-16 07:57:00,
2013-07-16 04:02:00,68.9,67.4,30.23,NE,53,0.0,0.0,95,0.00,,---,0.00,VWS V14.01,2013-07-16 08:02:00,
2013-07-16 04:03:00,68.9,67.4,30.23,NE,52,0.0,0.0,95,0.00,,---,0.00,VWS V14.01,2013-07-16 08:03:00,
2013-07-16 04:08:00,68.9,67.4,30.23,NE,54,0.0,0.0,95,0.00,,---,0.00,VWS V14.01,2013-07-16 08:08:00,
2013-07-16 04:13:00,69.0,67.5,30.23,NE,54,0.0,0.0,95,0.00,,---,0.00,VWS V14.01,2013-07-16 08:13:00,
2013-07-16 04:18:00,69.0,67.5,30.23,NE,54,0.0,0.0,95,0.00,,---,0.00,VWS V14.01,2013-07-16 08:18:00,
2013-07-16 04:23:00,68.9,67.4,30.23,NE,54,0.0,0.0,95,0.00,,---,0.00,VWS V14.01,2013-07-16 08:23:00,
2013-07-16 04:28:00,68.8,67.3,30.23,NE,54,0.0,0.0,95,0.00,,---,0.00,VWS V14.01,2013-07-16 08:28:00,
2013-07-16 04:33:00,68.8,67.3,30.23,NE,54,0.0,0.0,95,0.00,,---,0.00,VWS V14.01,2013-07-16 08:33:00,
2013-07-16 04:38:00,68.8,67.3,30.22,ENE,57,0.0,0.0,95,0.00,,---,0.00,VWS V14.01,2013-07-16 08:38:00,
2013-07-16 04:43:00,68.7,67.2,30.22,ENE,61,0.0,0.0,95,0.00,,---,0.00,VWS V14.01,2013-07-16 08:43:00,
2013-07-16 04:48:00,68.6,67.1,30.22,ENE,61,0.0,0.0,95,0.00,,---,0.00,VWS V14.01,2013-07-16 08:48:00,
2013-07-16 04:53:00,68.5,67.0,30.22,ENE,61,0.0,0.0,95,0.00,,---,0.00,VWS V14.01,2013-07-16 08:53:00,
2013-07-16 04:58:00,68.4,66.9,30.23,ENE,61,0.0,0.0,95,0.00,,---,0.00,VWS V14.01,2013-07-16 08:58:00,
2013-07-16 05:03:00,68.4,66.9,30.23,ENE,61,0.0,0.0,95,0.00,,---,0.00,VWS V14.01,2013-07-16 09:03:00,
2013-07-16 05:08:00,68.4,66.9,30.23,ENE,61,0.0,0.0,95,0.00,,---,0.00,VWS V14.01,2013-07-16 09:08:00,
2013-07-16 05:13:00,68.5,67.0,30.22,ENE,61,0.0,0.0,95,0.00,,---,0.00,VWS V14.01,2013-07-16 09:13:00,
2013-07-16 05:18:00,68.6,67.1,30.22,ENE,59,0.0,0.0,95,0.00,,---,0.00,VWS V14.01,2013-07-16 09:18:00,
2013-07-16 05:23:00,68.7,67.2,30.23,ENE,59,0.0,0.0,95,0.00,,---,0.00,VWS V14.01,2013-07-16 09:23:00,
2013-07-16 05:28:00,68.7,67.2,30.22,ENE,59,0.0,0.0,95,0.00,,---,0.00,VWS V14.01,2013-07-16 09:28:00,
2013-07-16 05:33:00,68.7,67.2,30.22,ENE,59,0.0,0.0,95,0.00,,---,0.00,VWS V14.01,2013-07-16 09:33:00,
2013-07-16 05:38:00,68.6,67.1,30.23,ENE,59,0.0,0.0,95,0.00,,---,0.00,VWS V14.01,2013-07-16 09:38:00,
2013-07-16 05:43:00,68.5,67.0,30.23,ENE,59,0.0,0.0,95,0.00,,---,0.00,VWS V14.01,2013-07-16 09:43:00,
2013-07-16 05:48:00,68.5,67.0,30.23,ENE,59,0.0,0.0,95,0.00,,---,0.00,VWS V14.01,2013-07-16 09:48:00,
2013-07-16 05:53:00,68.4,66.9,30.23,ENE,61,0.0,0.0,95,0.00,,---,0.00,VWS V14.01,2013-07-16 09:53:00,
2013-07-16 05:58:00,68.4,66.9,30.23,ENE,61,0.0,0.0,95,0.00,,---,0.00,VWS V14.01,2013-07-16 09:58:00,
2013-07-16 06:03:00,68.4,66.9,30.23,ENE,61,0.0,0.0,95,0.00,,---,0.00,VWS V14.01,2013-07-16 10:03:00,
2013-07-16 06:08:00,68.4,66.9,30.23,ENE,61,0.0,0.0,95,0.00,,---,0.00,VWS V14.01,2013-07-16 10:08:00,
2013-07-16 06:13:00,68.4,66.9,30.23,ENE,61,0.0,0.0,95,0.00,,---,0.00,VWS V14.01,2013-07-16 10:13:00,
2013-07-16 06:18:00,68.4,66.9,30.23,ENE,61,0.0,0.0,95,0.00,,---,0.00,VWS V14.01,2013-07-16 10:18:00,
2013-07-16 06:23:00,68.4,66.9,30.23,ENE,61,0.0,0.0,95,0.00,,---,0.00,VWS V14.01,2013-07-16 10:23:00,
2013-07-16 06:29:00,68.4,66.9,30.23,ENE,63,0.0,0.0,95,0.00,,---,0.00,VWS V14.01,2013-07-16 10:29:00,
2013-07-16 06:34:00,68.4,66.9,30.23,ENE,65,0.0,0.0,95,0.00,,---,0.00,VWS V14.01,2013-07-16 10:34:00,
2013-07-16 06:39:00,68.4,66.9,30.23,ENE,65,0.0,0.0,95,0.00,,---,0.00,VWS V14.01,2013-07-16 10:39:00,
2013-07-16 06:44:00,68.5,67.0,30.23,ENE,65,0.0,0.0,95,0.00,,---,0.00,VWS V14.01,2013-07-16 10:44:00,
2013-07-16 06:49:00,68.5,67.0,30.23,ENE,65,0.0,0.0,95,0.00,,---,0.00,VWS V14.01,2013-07-16 10:49:00,
2013-07-16 06:54:00,68.4,66.9,30.23,ENE,65,0.0,0.0,95,0.00,,---,0.00,VWS V14.01,2013-07-16 10:54:00,
2013-07-16 06:59:00,68.4,66.9,30.23,ENE,65,0.0,0.0,95,0.00,,---,0.00,VWS V14.01,2013-07-16 10:59:00,
2013-07-16 07:04:00,68.5,67.0,30.23,ENE,65,0.0,0.0,95,0.00,,---,0.00,VWS V14.01,2013-07-16 11:04:00,
2013-07-16 07:09:00,68.5,67.0,30.23,ENE,65,0.0,0.0,95,0.00,,---,0.00,VWS V14.01,2013-07-16 11:09:00,
2013-07-16 07:14:00,68.5,67.0,30.23,ENE,66,0.0,0.0,95,0.00,,---,0.00,VWS V14.01,2013-07-16 11:14:00,
2013-07-16 07:19:00,68.7,67.2,30.23,ENE,66,0.0,0.0,95,0.00,,---,0.00,VWS V14.01,2013-07-16 11:19:00,
2013-07-16 07:24:00,68.9,67.4,30.23,ENE,61,0.0,0.0,95,0.00,,---,0.00,VWS V14.01,2013-07-16 11:24:00,
2013-07-16 07:29:00,69.1,67.6,30.24,ENE,61,0.0,0.0,95,0.00,,---,0.00,VWS V14.01,2013-07-16 11:29:00,
2013-07-16 07:34:00,69.3,67.8,30.24,ENE,61,0.0,0.0,95,0.00,,---,0.00,VWS V14.01,2013-07-16 11:34:00,
2013-07-16 07:39:00,69.4,67.9,30.24,ENE,61,0.0,0.0,95,0.00,,---,0.00,VWS V14.01,2013-07-16 11:39:00,
2013-07-16 07:44:00,69.6,67.8,30.24,ENE,61,0.0,0.0,94,0.00,,---,0.00,VWS V14.01,2013-07-16 11:44:00,
2013-07-16 07:49:00,70.0,68.2,30.24,ENE,61,0.0,0.0,94,0.00,,---,0.00,VWS V14.01,2013-07-16 11:49:00,
2013-07-16 07:54:00,70.2,68.4,30.24,ENE,63,0.0,0.0,94,0.00,,---,0.00,VWS V14.01,2013-07-16 11:54:00,
2013-07-16 07:59:00,70.5,68.7,30.24,ENE,63,0.0,0.0,94,0.00,,---,0.00,VWS V14.01,2013-07-16 11:59:00,
2013-07-16 08:04:00,70.9,69.1,30.24,ENE,63,0.0,0.0,94,0.00,,---,0.00,VWS V14.01,2013-07-16 12:04:00,
2013-07-16 08:09:00,71.2,69.4,30.24,ENE,63,0.0,0.0,94,0.00,,---,0.00,VWS V14.01,2013-07-16 12:09:00,
2013-07-16 08:14:00,71.6,69.8,30.24,ENE,63,0.0,0.0,94,0.00,,---,0.00,VWS V14.01,2013-07-16 12:14:00,
2013-07-16 08:19:00,71.9,70.1,30.24,ENE,63,0.0,0.0,94,0.00,,---,0.00,VWS V14.01,2013-07-16 12:19:00,
2013-07-16 08:24:00,72.2,70.4,30.25,ENE,63,0.0,0.0,94,0.00,,---,0.00,VWS V14.01,2013-07-16 12:24:00,
2013-07-16 08:29:00,72.7,70.9,30.25,ENE,63,0.0,0.0,94,0.00,,---,0.00,VWS V14.01,2013-07-16 12:29:00,
2013-07-16 08:34:00,72.9,71.1,30.24,NW,307,0.0,1.0,94,0.00,,---,0.00,VWS V14.01,2013-07-16 12:34:00,
2013-07-16 08:39:00,73.0,71.2,30.25,NW,307,0.0,1.0,94,0.00,,---,0.00,VWS V14.01,2013-07-16 12:39:00,
2013-07-16 08:44:00,73.2,71.4,30.24,NNE,21,1.0,1.0,94,0.00,,---,0.00,VWS V14.01,2013-07-16 12:44:00,
2013-07-16 08:49:00,73.4,71.6,30.25,ENE,66,1.0,1.0,94,0.00,,---,0.00,VWS V14.01,2013-07-16 12:49:00,
2013-07-16 08:54:00,73.7,71.9,30.24,ENE,66,0.0,1.0,94,0.00,,---,0.00,VWS V14.01,2013-07-16 12:54:00,
2013-07-16 08:59:00,74.0,72.2,30.24,ENE,65,0.0,0.0,94,0.00,,---,0.00,VWS V14.01,2013-07-16 12:59:00,
2013-07-16 09:04:00,74.4,72.6,30.24,West,269,1.0,2.0,94,0.00,,---,0.00,VWS V14.01,2013-07-16 13:04:00,
2013-07-16 09:09:00,74.7,73.2,30.25,NNE,27,0.0,2.0,95,0.00,,---,0.00,VWS V14.01,2013-07-16 13:09:00,
2013-07-16 09:14:00,75.3,73.8,30.24,NE,55,0.0,2.0,95,0.00,,---,0.00,VWS V14.01,2013-07-16 13:14:00,
2013-07-16 09:19:00,76.0,74.2,30.24,NW,326,0.0,2.0,94,0.00,,---,0.00,VWS V14.01,2013-07-16 13:19:00,
2013-07-16 09:24:00,76.7,74.2,30.24,NNE,19,0.0,2.0,92,0.00,,---,0.00,VWS V14.01,2013-07-16 13:24:00,
2013-07-16 09:29:00,77.3,74.1,30.24,NW,314,1.0,1.0,90,0.00,,---,0.00,VWS V14.01,2013-07-16 13:29:00,
2013-07-16 09:34:00,77.9,74.7,30.24,WSW,252,1.0,1.0,90,0.00,,---,0.00,VWS V14.01,2013-07-16 13:34:00,
2013-07-16 09:39:00,78.5,74.7,30.24,ENE,61,1.0,5.0,88,0.00,,---,0.00,VWS V14.01,2013-07-16 13:39:00,
2013-07-16 09:44:00,78.8,74.6,30.24,NE,55,0.0,5.0,87,0.00,,---,0.00,VWS V14.01,2013-07-16 13:44:00,
2013-07-16 09:49:00,79.3,74.4,30.24,NE,45,2.0,5.0,85,0.00,,---,0.00,VWS V14.01,2013-07-16 13:49:00,
2013-07-16 09:54:00,79.7,74.4,30.24,NE,42,0.0,5.0,84,0.00,,---,0.00,VWS V14.01,2013-07-16 13:54:00,
2013-07-16 09:59:00,80.0,74.4,30.24,NE,42,2.0,2.0,83,0.00,,---,0.00,VWS V14.01,2013-07-16 13:59:00,
2013-07-16 10:04:00,80.4,74.4,30.24,ENE,64,1.0,2.0,82,0.00,,---,0.00,VWS V14.01,2013-07-16 14:04:00,
2013-07-16 10:09:00,80.6,74.2,30.24,NNE,18,1.0,2.0,81,0.00,,---,0.00,VWS V14.01,2013-07-16 14:09:00,
2013-07-16 10:14:00,80.9,74.2,30.24,West,267,0.0,3.0,80,0.00,,---,0.00,VWS V14.01,2013-07-16 14:14:00,
2013-07-16 10:19:00,81.3,74.9,30.24,NW,309,0.0,3.0,81,0.00,,---,0.00,VWS V14.01,2013-07-16 14:19:00,
2013-07-16 10:24:00,81.6,75.2,30.24,WSW,241,0.0,3.0,81,0.00,,---,0.00,VWS V14.01,2013-07-16 14:24:00,
2013-07-16 10:29:00,81.9,74.8,30.24,West,262,0.0,2.0,79,0.00,,---,0.00,VWS V14.01,2013-07-16 14:29:00,
2013-07-16 10:34:00,82.2,75.0,30.24,South,175,1.0,2.0,79,0.00,,---,0.00,VWS V14.01,2013-07-16 14:34:00,
2013-07-16 10:39:00,82.6,75.1,30.24,SSE,167,2.0,2.0,78,0.00,,---,0.00,VWS V14.01,2013-07-16 14:39:00,
2013-07-16 10:44:00,83.0,75.4,30.23,SSE,159,0.0,2.0,78,0.00,,---,0.00,VWS V14.01,2013-07-16 14:44:00,
2013-07-16 10:49:00,83.6,76.0,30.23,WNW,290,0.0,2.0,78,0.00,,---,0.00,VWS V14.01,2013-07-16 14:49:00,
2013-07-16 10:54:00,84.1,74.9,30.23,WNW,290,0.0,2.0,74,0.00,,---,0.00,VWS V14.01,2013-07-16 14:54:00,
2013-07-16 10:59:00,84.8,75.6,30.23,WSW,255,1.0,1.0,74,0.00,,---,0.00,VWS V14.01,2013-07-16 14:59:00,
2013-07-16 11:04:00,85.5,75.4,30.23,NE,42,0.0,1.0,72,0.00,,---,0.00,VWS V14.01,2013-07-16 15:04:00,
2013-07-16 11:09:00,86.1,75.6,30.23,NE,42,1.0,1.0,71,0.00,,---,0.00,VWS V14.01,2013-07-16 15:09:00,
2013-07-16 11:14:00,86.7,76.2,30.23,NE,39,1.0,1.0,71,0.00,,---,0.00,VWS V14.01,2013-07-16 15:14:00,
2013-07-16 11:19:00,86.8,75.4,30.23,NNE,33,0.0,2.0,69,0.00,,---,0.00,VWS V14.01,2013-07-16 15:19:00,
2013-07-16 11:24:00,87.0,76.0,30.23,NNE,33,0.0,2.0,70,0.00,,---,0.00,VWS V14.01,2013-07-16 15:24:00,
2013-07-16 11:29:00,87.7,76.7,30.23,WSW,244,2.0,2.0,70,0.00,,---,0.00,VWS V14.01,2013-07-16 15:29:00,
2013-07-16 11:34:00,87.9,74.7,30.23,WSW,248,1.0,2.0,65,0.00,,---,0.00,VWS V14.01,2013-07-16 15:34:00,
2013-07-16 11:39:00,88.2,75.9,30.23,WSW,252,1.0,2.0,67,0.00,,---,0.00,VWS V14.01,2013-07-16 15:39:00,
2013-07-16 11:44:00,88.6,76.2,30.23,West,271,0.0,2.0,67,0.00,,---,0.00,VWS V14.01,2013-07-16 15:44:00,
2013-07-16 11:49:00,89.1,75.8,30.22,ESE,123,0.0,2.0,65,0.00,,---,0.00,VWS V14.01,2013-07-16 15:49:00,
2013-07-16 11:54:00,89.0,75.7,30.22,ESE,102,1.0,2.0,65,0.00,,---,0.00,VWS V14.01,2013-07-16 15:54:00,
2013-07-16 11:59:00,89.2,75.9,30.22,WNW,292,0.0,1.0,65,0.00,,---,0.00,VWS V14.01,2013-07-16 15:59:00,
2013-07-16 12:04:00,89.4,75.2,30.22,NW,317,0.0,2.0,63,0.00,,---,0.00,VWS V14.01,2013-07-16 16:04:00,
2013-07-16 12:09:00,89.5,76.2,30.22,East,90,0.0,2.0,65,0.00,,---,0.00,VWS V14.01,2013-07-16 16:09:00,
2013-07-16 12:14:00,89.5,74.3,30.22,East,90,0.0,2.0,61,0.00,,---,0.00,VWS V14.01,2013-07-16 16:14:00,
2013-07-16 12:19:00,89.4,75.6,30.22,East,90,0.0,2.0,64,0.00,,---,0.00,VWS V14.01,2013-07-16 16:19:00,
2013-07-16 12:24:00,89.5,75.2,30.22,East,80,0.0,2.0,63,0.00,,---,0.00,VWS V14.01,2013-07-16 16:24:00,
2013-07-16 12:29:00,90.5,76.2,30.22,NNE,32,0.0,0.0,63,0.00,,---,0.00,VWS V14.01,2013-07-16 16:29:00,
2013-07-16 12:34:00,90.7,76.8,30.22,NNE,32,0.0,1.0,64,0.00,,---,0.00,VWS V14.01,2013-07-16 16:34:00,
2013-07-16 12:39:00,90.8,76.0,30.22,NNE,13,0.0,1.0,62,0.00,,---,0.00,VWS V14.01,2013-07-16 16:39:00,
2013-07-16 12:44:00,91.1,76.3,30.22,ENE,76,1.0,1.0,62,0.00,,---,0.00,VWS V14.01,2013-07-16 16:44:00,
2013-07-16 12:49:00,90.8,76.0,30.21,NE,55,1.0,1.0,62,0.00,,---,0.00,VWS V14.01,2013-07-16 16:49:00,
2013-07-16 12:54:00,90.5,75.7,30.22,SE,126,0.0,1.0,62,0.00,,---,0.00,VWS V14.01,2013-07-16 16:54:00,
2013-07-16 12:59:00,91.1,76.3,30.21,NE,42,0.0,1.0,62,0.00,,---,0.00,VWS V14.01,2013-07-16 16:59:00,
2013-07-16 13:04:00,91.7,76.3,30.21,NNE,30,0.0,1.0,61,0.00,,---,0.00,VWS V14.01,2013-07-16 17:04:00,
2013-07-16 13:09:00,92.2,76.3,30.21,NNE,31,0.0,1.0,60,0.00,,---,0.00,VWS V14.01,2013-07-16 17:09:00,
2013-07-16 13:14:00,91.6,75.2,30.21,NNE,15,0.0,2.0,59,0.00,,---,0.00,VWS V14.01,2013-07-16 17:14:00,
2013-07-16 13:19:00,91.3,76.0,30.21,West,279,1.0,2.0,61,0.00,,---,0.00,VWS V14.01,2013-07-16 17:19:00,
2013-07-16 13:24:00,91.1,74.8,30.21,SW,223,0.0,2.0,59,0.00,,---,0.00,VWS V14.01,2013-07-16 17:24:00,
2013-07-16 13:29:00,91.5,75.2,30.21,SW,223,0.0,1.0,59,0.00,,---,0.00,VWS V14.01,2013-07-16 17:29:00,
2013-07-16 13:34:00,92.2,75.8,30.21,NE,36,1.0,1.0,59,0.00,,---,0.00,VWS V14.01,2013-07-16 17:34:00,
2013-07-16 13:39:00,92.1,74.7,30.21,WNW,300,0.0,1.0,57,0.00,,---,0.00,VWS V14.01,2013-07-16 17:39:00,
2013-07-16 13:44:00,92.7,75.8,30.20,ESE,123,0.0,1.0,58,0.00,,---,0.00,VWS V14.01,2013-07-16 17:44:00,
2013-07-16 13:49:00,92.5,76.1,30.20,ESE,121,1.0,1.0,59,0.00,,---,0.00,VWS V14.01,2013-07-16 17:49:00,
2013-07-16 13:54:00,92.7,75.8,30.20,East,101,0.0,1.0,58,0.00,,---,0.00,VWS V14.01,2013-07-16 17:54:00,
2013-07-16 13:59:00,93.3,76.3,30.19,East,100,0.0,0.0,58,0.00,,---,0.00,VWS V14.01,2013-07-16 17:59:00,
2013-07-16 14:04:00,94.0,77.0,30.19,NE,50,0.0,1.0,58,0.00,,---,0.00,VWS V14.01,2013-07-16 18:04:00,
2013-07-16 14:09:00,94.0,76.5,30.19,NE,55,1.0,2.0,57,0.00,,---,0.00,VWS V14.01,2013-07-16 18:09:00,
2013-07-16 14:14:00,93.6,77.6,30.19,WNW,302,1.0,2.0,60,0.00,,---,0.00,VWS V14.01,2013-07-16 18:14:00,
2013-07-16 14:19:00,93.3,76.3,30.19,NE,45,1.0,2.0,58,0.00,,---,0.00,VWS V14.01,2013-07-16 18:19:00,
2013-07-16 14:24:00,93.4,77.9,30.19,West,267,1.0,2.0,61,0.00,,---,0.00,VWS V14.01,2013-07-16 18:24:00,
2013-07-16 14:29:00,93.2,76.8,30.19,SW,217,0.0,1.0,59,0.00,,---,0.00,VWS V14.01,2013-07-16 18:29:00,
2013-07-16 14:34:00,93.8,77.3,30.18,SW,217,0.0,1.0,59,0.00,,---,0.00,VWS V14.01,2013-07-16 18:34:00,
2013-07-16 14:39:00,94.1,78.6,30.18,SSW,209,0.0,1.0,61,0.00,,---,0.00,VWS V14.01,2013-07-16 18:39:00,
2013-07-16 14:44:00,94.3,77.8,30.18,East,100,0.0,1.0,59,0.00,,---,0.00,VWS V14.01,2013-07-16 18:44:00,
2013-07-16 14:49:00,93.9,77.9,30.18,East,92,0.0,1.0,60,0.00,,---,0.00,VWS V14.01,2013-07-16 18:49:00,
2013-07-16 14:54:00,94.0,78.0,30.18,NW,310,1.0,1.0,60,0.00,,---,0.00,VWS V14.01,2013-07-16 18:54:00,
2013-07-16 14:59:00,93.5,76.5,30.18,WNW,287,1.0,1.0,58,0.00,,---,0.00,VWS V14.01,2013-07-16 18:59:00,
2013-07-16 15:04:00,93.6,77.1,30.18,WNW,300,0.0,1.0,59,0.00,,---,0.00,VWS V14.01,2013-07-16 19:04:00,
2013-07-16 15:09:00,93.9,77.9,30.18,ENE,61,1.0,2.0,60,0.00,,---,0.00,VWS V14.01,2013-07-16 19:09:00,
2013-07-16 15:14:00,93.0,76.6,30.18,ENE,61,0.0,2.0,59,0.00,,---,0.00,VWS V14.01,2013-07-16 19:14:00,
2013-07-16 15:19:00,93.2,78.7,30.18,NE,49,0.0,2.0,63,0.00,,---,0.00,VWS V14.01,2013-07-16 19:19:00,
2013-07-16 15:24:00,93.4,78.4,30.17,North,351,0.0,2.0,62,0.00,,---,0.00,VWS V14.01,2013-07-16 19:24:00,
2013-07-16 15:29:00,93.9,78.4,30.17,NNE,30,0.0,0.0,61,0.00,,---,0.00,VWS V14.01,2013-07-16 19:29:00,
2013-07-16 15:34:00,93.7,77.7,30.17,NNE,30,0.0,0.0,60,0.00,,---,0.00,VWS V14.01,2013-07-16 19:34:00,
2013-07-16 15:39:00,92.7,77.3,30.17,NNE,30,0.0,0.0,61,0.00,,---,0.00,VWS V14.01,2013-07-16 19:39:00,
2013-07-16 15:44:00,92.6,79.1,30.17,NNE,30,0.0,0.0,65,0.00,,---,0.00,VWS V14.01,2013-07-16 19:44:00,
2013-07-16 15:49:00,92.3,79.3,30.17,NNE,28,0.0,0.0,66,0.00,,---,0.00,VWS V14.01,2013-07-16 19:49:00,
2013-07-16 15:54:00,92.4,80.3,30.17,NNE,28,0.0,0.0,68,0.00,,---,0.00,VWS V14.01,2013-07-16 19:54:00,
2013-07-16 15:59:00,92.9,78.4,30.17,NNE,28,0.0,0.0,63,0.00,,---,0.00,VWS V14.01,2013-07-16 19:59:00,
2013-07-16 16:04:00,93.4,76.4,30.17,NW,323,0.0,0.0,58,0.00,,---,0.00,VWS V14.01,2013-07-16 20:04:00,
2013-07-16 16:09:00,93.7,77.2,30.16,NW,325,0.0,0.0,59,0.00,,---,0.00,VWS V14.01,2013-07-16 20:09:00,
2013-07-16 16:15:00,94.0,77.0,30.16,NE,52,0.0,1.0,58,0.00,,---,0.00,VWS V14.01,2013-07-16 20:15:00,
2013-07-16 16:20:00,94.3,78.8,30.16,NE,53,0.0,1.0,61,0.00,,---,0.00,VWS V14.01,2013-07-16 20:20:00,
2013-07-16 16:25:00,94.5,78.5,30.16,NE,55,0.0,1.0,60,0.00,,---,0.00,VWS V14.01,2013-07-16 20:25:00,
2013-07-16 16:30:00,94.8,80.7,30.16,NE,52,0.0,0.0,64,0.00,,---,0.00,VWS V14.01,2013-07-16 20:30:00,
2013-07-16 16:35:00,94.4,78.9,30.16,NNE,20,0.0,0.0,61,0.00,,---,0.00,VWS V14.01,2013-07-16 20:35:00,
2013-07-16 16:40:00,93.3,79.3,30.16,NNW,348,0.0,0.0,64,0.00,,---,0.00,VWS V14.01,2013-07-16 20:40:00,
2013-07-16 16:45:00,92.6,80.9,30.16,NNW,348,0.0,0.0,69,0.00,,---,0.00,VWS V14.01,2013-07-16 20:45:00,
2013-07-16 16:50:00,92.4,81.2,30.16,NNW,348,0.0,0.0,70,0.00,,---,0.00,VWS V14.01,2013-07-16 20:50:00,
2013-07-16 16:55:00,91.9,80.7,30.16,North,349,0.0,0.0,70,0.00,,---,0.00,VWS V14.01,2013-07-16 20:55:00,
2013-07-16 17:00:00,91.0,79.9,30.16,North,350,0.0,0.0,70,0.00,,---,0.00,VWS V14.01,2013-07-16 21:00:00,
2013-07-16 17:05:00,90.0,80.2,30.15,North,350,0.0,0.0,73,0.00,,---,0.00,VWS V14.01,2013-07-16 21:05:00,
2013-07-16 17:10:00,89.7,80.3,30.15,North,350,0.0,0.0,74,0.00,,---,0.00,VWS V14.01,2013-07-16 21:10:00,
2013-07-16 17:15:00,89.7,80.7,30.15,North,350,0.0,0.0,75,0.00,,---,0.00,VWS V14.01,2013-07-16 21:15:00,
2013-07-16 17:20:00,89.9,80.9,30.15,North,350,0.0,0.0,75,0.00,,---,0.00,VWS V14.01,2013-07-16 21:20:00,
2013-07-16 17:25:00,89.9,80.1,30.15,North,350,0.0,0.0,73,0.00,,---,0.00,VWS V14.01,2013-07-16 21:25:00,
2013-07-16 17:30:00,88.9,79.1,30.15,North,350,0.0,0.0,73,0.00,,---,0.00,VWS V14.01,2013-07-16 21:30:00,
2013-07-16 17:35:00,88.3,80.6,30.15,North,350,0.0,0.0,78,0.00,,---,0.00,VWS V14.01,2013-07-16 21:35:00,
2013-07-16 17:40:00,88.5,80.8,30.15,North,350,0.0,0.0,78,0.00,,---,0.00,VWS V14.01,2013-07-16 21:40:00,
2013-07-16 17:45:00,88.8,81.1,30.15,North,350,0.0,0.0,78,0.00,,---,0.00,VWS V14.01,2013-07-16 21:45:00,
2013-07-16 17:50:00,89.8,82.0,30.15,North,350,0.0,0.0,78,0.00,,---,0.00,VWS V14.01,2013-07-16 21:50:00,
2013-07-16 17:55:00,90.5,80.7,30.15,North,350,0.0,0.0,73,0.00,,---,0.00,VWS V14.01,2013-07-16 21:55:00,
2013-07-16 18:00:00,90.8,80.9,30.15,North,350,0.0,0.0,73,0.00,,---,0.00,VWS V14.01,2013-07-16 22:00:00,
2013-07-16 18:05:00,91.0,81.6,30.15,North,350,0.0,0.0,74,0.00,,---,0.00,VWS V14.01,2013-07-16 22:05:00,
2013-07-16 18:10:00,90.9,81.5,30.15,North,350,0.0,0.0,74,0.00,,---,0.00,VWS V14.01,2013-07-16 22:10:00,
2013-07-16 18:15:00,90.6,79.5,30.14,NNW,347,0.0,0.0,70,0.00,,---,0.00,VWS V14.01,2013-07-16 22:15:00,
2013-07-16 18:20:00,90.0,78.5,30.15,NNW,346,0.0,0.0,69,0.00,,---,0.00,VWS V14.01,2013-07-16 22:20:00,
2013-07-16 18:25:00,90.0,80.2,30.15,NNW,346,0.0,0.0,73,0.00,,---,0.00,VWS V14.01,2013-07-16 22:25:00,
2013-07-16 18:30:00,90.0,80.2,30.15,NNW,346,0.0,0.0,73,0.00,,---,0.00,VWS V14.01,2013-07-16 22:30:00,
2013-07-16 18:35:00,89.9,80.5,30.15,NNW,346,0.0,0.0,74,0.00,,---,0.00,VWS V14.01,2013-07-16 22:35:00,
2013-07-16 18:40:00,89.8,80.8,30.15,NNW,346,0.0,0.0,75,0.00,,---,0.00,VWS V14.01,2013-07-16 22:40:00,
2013-07-16 18:45:00,89.5,80.5,30.15,NNW,346,0.0,0.0,75,0.00,,---,0.00,VWS V14.01,2013-07-16 22:45:00,
2013-07-16 18:50:00,89.0,81.2,30.16,NNW,346,0.0,0.0,78,0.00,,---,0.00,VWS V14.01,2013-07-16 22:50:00,
2013-07-16 18:55:00,88.2,80.9,30.16,NNW,346,0.0,0.0,79,0.00,,---,0.00,VWS V14.01,2013-07-16 22:55:00,
2013-07-16 19:00:00,87.6,80.7,30.16,NNW,346,0.0,0.0,80,0.00,,---,0.00,VWS V14.01,2013-07-16 23:00:00,
2013-07-16 19:05:00,87.2,80.3,30.15,NNW,346,0.0,0.0,80,0.00,,---,0.00,VWS V14.01,2013-07-16 23:05:00,
2013-07-16 19:10:00,86.9,80.4,30.15,NNW,346,0.0,0.0,81,0.00,,---,0.00,VWS V14.01,2013-07-16 23:10:00,
2013-07-16 19:15:00,86.7,80.9,30.15,NNW,346,0.0,0.0,83,0.00,,---,0.00,VWS V14.01,2013-07-16 23:15:00,
2013-07-16 19:20:00,86.1,80.7,30.15,NNW,346,0.0,0.0,84,0.00,,---,0.00,VWS V14.01,2013-07-16 23:20:00,
2013-07-16 19:25:00,85.7,80.7,30.15,NNW,346,0.0,0.0,85,0.00,,---,0.00,VWS V14.01,2013-07-16 23:25:00,
2013-07-16 19:30:00,85.5,80.5,30.15,NNW,346,0.0,0.0,85,0.00,,---,0.00,VWS V14.01,2013-07-16 23:30:00,
2013-07-16 19:35:00,85.3,80.6,30.15,NNW,346,0.0,0.0,86,0.00,,---,0.00,VWS V14.01,2013-07-16 23:35:00,
2013-07-16 19:40:00,85.0,80.3,30.15,NNW,346,0.0,0.0,86,0.00,,---,0.00,VWS V14.01,2013-07-16 23:40:00,
2013-07-16 19:45:00,84.7,80.1,30.15,NNW,346,0.0,0.0,86,0.00,,---,0.00,VWS V14.01,2013-07-16 23:45:00,
2013-07-16 19:50:00,84.5,80.2,30.16,NNW,346,0.0,0.0,87,0.00,,---,0.00,VWS V14.01,2013-07-16 23:50:00,
2013-07-16 19:55:00,84.3,80.0,30.16,NNW,346,0.0,0.0,87,0.00,,---,0.00,VWS V14.01,2013-07-16 23:55:00,
2013-07-16 20:00:00,84.2,79.9,30.16,NNW,346,0.0,0.0,87,0.00,,---,0.00,VWS V14.01,2013-07-17 00:00:00,
2013-07-16 20:05:00,84.1,80.2,30.15,NNW,346,0.0,0.0,88,0.00,,---,0.00,VWS V14.01,2013-07-17 00:05:00,
2013-07-16 20:10:00,83.8,80.2,30.15,NNW,346,0.0,0.0,89,0.00,,---,0.00,VWS V14.01,2013-07-17 00:10:00,
2013-07-16 20:15:00,83.3,79.7,30.16,NNW,346,0.0,0.0,89,0.00,,---,0.00,VWS V14.01,2013-07-17 00:15:00,
2013-07-16 20:20:00,82.9,79.7,30.17,NNW,346,0.0,0.0,90,0.00,,---,0.00,VWS V14.01,2013-07-17 00:20:00,
2013-07-16 20:25:00,82.7,79.5,30.17,NNW,346,0.0,0.0,90,0.00,,---,0.00,VWS V14.01,2013-07-17 00:25:00,
2013-07-16 20:30:00,82.4,79.5,30.17,NNW,346,0.0,0.0,91,0.00,,---,0.00,VWS V14.01,2013-07-17 00:30:00,
2013-07-16 20:35:00,82.2,79.3,30.17,NNW,346,0.0,0.0,91,0.00,,---,0.00,VWS V14.01,2013-07-17 00:35:00,
2013-07-16 20:40:00,81.9,79.0,30.17,NNW,346,0.0,0.0,91,0.00,,---,0.00,VWS V14.01,2013-07-17 00:40:00,
2013-07-16 20:45:00,81.6,78.7,30.17,NNW,346,0.0,0.0,91,0.00,,---,0.00,VWS V14.01,2013-07-17 00:45:00,
2013-07-16 20:50:00,81.4,78.9,30.17,NNW,346,0.0,0.0,92,0.00,,---,0.00,VWS V14.01,2013-07-17 00:50:00,
2013-07-16 20:55:00,81.3,78.8,30.17,NNW,346,0.0,0.0,92,0.00,,---,0.00,VWS V14.01,2013-07-17 00:55:00,
2013-07-16 21:00:00,81.1,78.9,30.17,NNW,342,0.0,0.0,93,0.00,,---,0.00,VWS V14.01,2013-07-17 01:00:00,
2013-07-16 21:05:00,80.9,78.7,30.17,NNW,342,0.0,0.0,93,0.00,,---,0.00,VWS V14.01,2013-07-17 01:05:00,
2013-07-16 21:10:00,80.7,78.5,30.17,NNW,342,0.0,0.0,93,0.00,,---,0.00,VWS V14.01,2013-07-17 01:10:00,
2013-07-16 21:15:00,80.4,78.2,30.17,NNW,342,0.0,0.0,93,0.00,,---,0.00,VWS V14.01,2013-07-17 01:15:00,
2013-07-16 21:20:00,80.0,77.8,30.17,NNW,342,0.0,0.0,93,0.00,,---,0.00,VWS V14.01,2013-07-17 01:20:00,
2013-07-16 21:25:00,79.7,77.5,30.17,NNW,342,0.0,0.0,93,0.00,,---,0.00,VWS V14.01,2013-07-17 01:25:00,
2013-07-16 21:30:00,79.5,77.6,30.17,NNW,342,0.0,0.0,94,0.00,,---,0.00,VWS V14.01,2013-07-17 01:30:00,
2013-07-16 21:35:00,79.4,77.5,30.18,SW,215,0.0,2.0,94,0.00,,---,0.00,VWS V14.01,2013-07-17 01:35:00,
2013-07-16 21:40:00,79.2,77.3,30.18,SW,215,0.0,2.0,94,0.00,,---,0.00,VWS V14.01,2013-07-17 01:40:00,
2013-07-16 21:45:00,79.0,77.1,30.17,SW,215,0.0,2.0,94,0.00,,---,0.00,VWS V14.01,2013-07-17 01:45:00,
2013-07-16 21:50:00,78.7,76.8,30.18,SW,215,0.0,2.0,94,0.00,,---,0.00,VWS V14.01,2013-07-17 01:50:00,
2013-07-16 21:55:00,78.6,76.7,30.18,SW,214,0.0,2.0,94,0.00,,---,0.00,VWS V14.01,2013-07-17 01:55:00,
2013-07-16 22:00:00,78.4,76.5,30.18,SW,215,0.0,0.0,94,0.00,,---,0.00,VWS V14.01,2013-07-17 02:00:00,
2013-07-16 22:05:00,78.3,76.8,30.18,SW,214,0.0,0.0,95,0.00,,---,0.00,VWS V14.01,2013-07-17 02:05:00,
2013-07-16 22:10:00,78.1,76.6,30.18,SW,215,0.0,0.0,95,0.00,,---,0.00,VWS V14.01,2013-07-17 02:10:00,
2013-07-16 22:15:00,78.0,76.5,30.18,SW,214,0.0,0.0,95,0.00,,---,0.00,VWS V14.01,2013-07-17 02:15:00,
2013-07-16 22:20:00,77.9,76.4,30.18,SW,214,0.0,0.0,95,0.00,,---,0.00,VWS V14.01,2013-07-17 02:20:00,
2013-07-16 22:25:00,77.9,76.4,30.18,SW,214,0.0,0.0,95,0.00,,---,0.00,VWS V14.01,2013-07-17 02:25:00,
2013-07-16 22:30:00,77.9,76.4,30.18,SW,214,0.0,0.0,95,0.00,,---,0.00,VWS V14.01,2013-07-17 02:30:00,
2013-07-16 22:35:00,77.8,76.3,30.18,SW,214,0.0,0.0,95,0.00,,---,0.00,VWS V14.01,2013-07-17 02:35:00,
2013-07-16 22:40:00,77.7,76.2,30.18,SW,214,0.0,0.0,95,0.00,,---,0.00,VWS V14.01,2013-07-17 02:40:00,
2013-07-16 22:45:00,77.7,76.2,30.18,SW,214,0.0,0.0,95,0.00,,---,0.00,VWS V14.01,2013-07-17 02:45:00,
2013-07-16 22:50:00,77.6,76.1,30.18,SW,214,0.0,0.0,95,0.00,,---,0.00,VWS V14.01,2013-07-17 02:50:00,
2013-07-16 22:55:00,77.6,76.1,30.17,SW,214,0.0,0.0,95,0.00,,---,0.00,VWS V14.01,2013-07-17 02:55:00,
2013-07-16 23:00:00,77.5,76.0,30.17,SW,214,0.0,0.0,95,0.00,,---,0.00,VWS V14.01,2013-07-17 03:00:00,
2013-07-16 23:05:00,77.4,75.9,30.17,SW,214,0.0,0.0,95,0.00,,---,0.00,VWS V14.01,2013-07-17 03:05:00,
2013-07-16 23:10:00,77.4,75.9,30.17,SW,215,0.0,0.0,95,0.00,,---,0.00,VWS V14.01,2013-07-17 03:10:00,
2013-07-16 23:15:00,77.3,75.8,30.17,SW,214,0.0,0.0,95,0.00,,---,0.00,VWS V14.01,2013-07-17 03:15:00,
2013-07-16 23:20:00,77.2,75.7,30.17,SW,214,0.0,0.0,95,0.00,,---,0.00,VWS V14.01,2013-07-17 03:20:00,
2013-07-16 23:25:00,77.2,75.7,30.17,SW,214,0.0,0.0,95,0.00,,---,0.00,VWS V14.01,2013-07-17 03:25:00,
2013-07-16 23:30:00,77.2,75.7,30.18,SW,214,0.0,0.0,95,0.00,,---,0.00,VWS V14.01,2013-07-17 03:30:00,
2013-07-16 23:35:00,77.1,75.6,30.17,SW,214,0.0,0.0,95,0.00,,---,0.00,VWS V14.01,2013-07-17 03:35:00,
2013-07-16 23:40:00,77.0,75.5,30.17,SW,214,0.0,0.0,95,0.00,,---,0.00,VWS V14.01,2013-07-17 03:40:00,
2013-07-16 23:45:00,76.8,75.3,30.17,SW,214,0.0,0.0,95,0.00,,---,0.00,VWS V14.01,2013-07-17 03:45:00,
2013-07-16 23:50:00,76.7,75.2,30.17,SW,214,0.0,0.0,95,0.00,,---,0.00,VWS V14.01,2013-07-17 03:50:00,
2013-07-16 23:55:00,76.6,75.1,30.16,SW,214,0.0,0.0,95,0.00,,---,0.00,VWS V14.01,2013-07-17 03:55:00,